This demonstration page uses our WeatherBlox Daily Observations layout. Learn more.

Left ArrowRight Arrow

40.92945, -100.16068

Hourly Observations for June 14, 2020

Temp ( °F °C ) Dew Point ( °F °C ) Humidity (%) Winds ( mph kmh ) Pressure ( in mb ) Visibility ( mi km ) Precip ( " mm )
12:15 am 00:15 Clear 70 21.2 55 13 60 60 ESE 9 15 29.8 1009 10 16.0934 0 0
12:35 am 00:35 Clear 71 21.7 54 12.4 56 56 SE 8 13 29.8 1009 10 16.0934 0 0
12:55 am 00:55 Clear 71 21.9 54 12 54 54 SSE 12 19 29.8 1009 10 16.0934 0 0
1:15 am 01:15 Clear 72 22.2 53 11.5 51 51 SE 12 19 29.79 1009 10 16.0934 0 0
1:35 am 01:35 Clear 72 22.1 53 11.4 51 51 SE 10 17 29.79 1009 10 16.0934 0 0
1:55 am 01:55 Clear 70 21.3 53 11.4 53 53 SE 10 17 29.8 1009 10 16.0934 0 0
2:15 am 02:15 Clear 69 20.5 53 11.5 56 56 SE 9 15 29.81 1009 10 16.0934 0 0
2:35 am 02:35 Clear 67 19.6 52 11.1 58 58 SE 8 13 29.82 1010 10 16.0934 0 0
2:55 am 02:55 Clear 66 18.7 52 11.1 61 61 SE 8 13 29.82 1010 10 16.0934 0 0
3:15 am 03:15 Clear 66 18.9 51 10.4 58 58 S 10 17 29.82 1010 10 16.0934 0 0
3:35 am 03:35 Clear 68 19.9 50 10 53 53 S 13 20 29.8 1009 10 16.0934 0 0
3:55 am 03:55 Clear 68 19.9 49 9.7 52 52 S 14 22 29.8 1009 10 16.0934 0 0
4:15 am 04:15 Clear 69 20.7 49 9.4 48 48 S 16 26 29.8 1009 10 16.0934 0 0
4:35 am 04:35 Clear 69 20.4 49 9.5 50 50 S 15 24 29.79 1009 10 16.0934 0 0
4:55 am 04:55 Clear 68 20.1 49 9.5 51 51 S 16 26 29.8 1009 10 16.0934 0 0
5:15 am 05:15 Clear 68 19.9 49 9.6 52 52 S 14 22 29.8 1009 10 16.0934 0 0
5:35 am 05:35 Clear 67 19.4 49 9.6 53 53 S 12 19 29.81 1009 10 16.0934 0 0
5:55 am 05:55 Clear 66 18.9 49 9.7 55 55 S 10 17 29.82 1010 10 16.0934 0 0
6:15 am 06:15 Sunny 67 19.5 49 9.4 52 52 S 14 22 29.82 1010 10 16.0934 0 0
6:35 am 06:35 Sunny 68 19.9 49 9.3 51 51 S 13 20 29.81 1010 10 16.0934 0 0
6:55 am 06:55 Sunny 67 19.5 50 9.9 54 54 S 10 17 29.84 1010 10 16.0934 0 0
7:15 am 07:15 Sunny 66 18.8 51 10.4 58 58 SSE 10 17 29.84 1011 10 16.0934 0 0
7:35 am 07:35 Sunny 67 19.3 52 11.2 60 60 SSE 9 15 29.84 1010 10 16.0934 0 0
7:55 am 07:55 Sunny 69 20.6 53 11.5 56 56 SSE 13 20 29.83 1010 10 16.0934 0 0
8:15 am 08:15 Sunny 71 21.9 53 11.7 52 52 S 15 24 29.83 1010 10 16.0934 0 0
8:35 am 08:35 Sunny 74 23.2 54 12 49 49 S 15 24 29.82 1010 10 16.0934 0 0
8:55 am 08:55 Sunny 74 23.4 54 12 49 49 SSE 15 24 29.8 1009 10 16.0934 0 0
9:15 am 09:15 Sunny 76 24.2 54 12 47 47 S 18 30 29.8 1009 10 16.0934 0 0
9:35 am 09:35 Sunny 74 23.4 54 12.1 49 49 S 17 28 29.8 1009 10 16.0934 0 0
9:55 am 09:55 Sunny 74 23.5 55 12.7 51 51 S 15 24 29.8 1009 10 16.0934 0 0
10:15 am 10:15 Sunny 76 24.7 55 12.8 48 48 S 17 28 29.79 1009 10 16.0934 0 0
10:35 am 10:35 Sunny 75 24.1 56 13.3 51 51 S 12 19 29.79 1009 10 16.0934 0 0
10:55 am 10:55 Sunny 78 25.3 56 13.2 47 47 S 13 20 29.78 1008 10 16.0934 0 0
11:15 am 11:15 Sunny 80 26.6 55 12.6 42 42 S 18 30 29.77 1008 10 16.0934 0 0
11:35 am 11:35 Sunny 81 27 55 12.9 42 42 S 13 20 29.76 1008 10 16.0934 0 0
11:55 am 11:55 Sunny 82 27.7 55 13 40 40 S 18 30 29.76 1008 10 16.0934 0 0
12:15 pm 12:15 Sunny 82 27.9 58 14.2 43 43 S 15 24 29.76 1008 10 16.0934 0 0
12:35 pm 12:35 Sunny 83 28.2 57 13.8 41 41 S 15 24 29.75 1008 10 16.0934 0 0
12:55 pm 12:55 Sunny 85 29.2 57 13.7 39 39 S 16 26 29.75 1007 10 16.0934 0 0
1:15 pm 13:15 Sunny 86 30 56 13.5 36 36 S 14 22 29.73 1007 10 16.0934 0 0
1:35 pm 13:35 Sunny 87 30.6 56 13.1 34 34 S 22 35 29.72 1007 10 16.0934 0 0
1:55 pm 13:55 Sunny 86 30.1 55 13 35 35 S 22 35 29.72 1006 10 16.0934 0 0
2:15 pm 14:15 Sunny 86 29.8 56 13.5 37 37 S 26 43 29.72 1006 10 16.0934 0 0
2:35 pm 14:35 Sunny 86 29.8 56 13.4 37 37 S 25 41 29.72 1006 10 16.0934 0 0
2:55 pm 14:55 Sunny 91 32.9 55 12.9 30 30 S 30 48 29.69 1005 10 16.0934 0 0
3:15 pm 15:15 Sunny 93 34 54 12.4 27 27 S 28 44 29.69 1005 10 16.0934 0 0
3:35 pm 15:35 Sunny 91 32.6 53 11.8 28 28 S 24 39 29.7 1006 10 16.0934 0 0
3:55 pm 15:55 Sunny 91 33 56 13.1 30 30 SSW 28 44 29.7 1006 10 16.0934 0 0
4:15 pm 16:15 Sunny 92 33.2 54 12.4 28 28 S 25 41 29.69 1006 10 16.0934 0 0
4:35 pm 16:35 Sunny 89 31.5 54 12 30 30 S 24 39 29.71 1006 10 16.0934 0 0
4:55 pm 16:55 Sunny 90 32.4 55 12.5 30 30 S 28 44 29.7 1006 10 16.0934 0 0
5:15 pm 17:15 Sunny 90 32.2 55 12.9 31 31 S 29 46 29.69 1005 10 16.0934 0 0
5:35 pm 17:35 Sunny 91 32.5 55 12.5 29 29 S 25 41 29.69 1005 10 16.0934 0 0
5:55 pm 17:55 Sunny 91 32.5 55 13 30 30 S 24 39 29.68 1005 10 16.0934 0 0
6:15 pm 18:15 Sunny 90 32.3 56 13.3 31 31 SSE 21 33 29.68 1005 10 16.0934 0 0
6:35 pm 18:35 Sunny 91 32.7 52 11.3 27 27 S 23 37 29.68 1005 10 16.0934 0 0
6:55 pm 18:55 Sunny 91 32.5 52 11.2 27 27 S 25 41 29.68 1005 10 16.0934 0 0
7:15 pm 19:15 Sunny 90 32 53 11.9 29 29 SSE 21 33 29.68 1005 10 16.0934 0 0
7:35 pm 19:35 Sunny 88 31.3 55 12.7 32 32 SSE 21 33 29.69 1005 10 16.0934 0 0
7:55 pm 19:55 Sunny 87 30.5 56 13.3 35 35 SSE 20 31 29.71 1006 10 16.0934 0 0
8:15 pm 20:15 Sunny 86 30.1 56 13.1 35 35 SSE 20 31 29.71 1006 10 16.0934 0 0
8:35 pm 20:35 Sunny 85 29.4 55 12.5 35 35 SSE 24 39 29.72 1007 10 16.0934 0 0
8:55 pm 20:55 Sunny 84 28.8 54 12 35 35 SSE 20 31 29.73 1007 10 16.0934 0 0
9:15 pm 21:15 Clear 83 28.5 53 11.5 35 35 SSE 23 37 29.73 1007 10 16.0934 0 0
9:35 pm 21:35 Clear 83 28.1 53 11.5 36 36 SSE 26 43 29.75 1007 10 16.0934 0 0
9:55 pm 21:55 Clear 82 27.9 53 11.7 37 37 SSE 24 39 29.76 1008 10 16.0934 0 0
10:15 pm 22:15 Clear 82 27.7 53 11.7 37 37 SSE 24 39 29.77 1008 10 16.0934 0 0
10:35 pm 22:35 Clear 81 27.3 53 11.9 38 38 SSE 26 43 29.77 1008 10 16.0934 0 0
10:55 pm 22:55 Clear 81 27.3 54 12 39 39 SSE 23 37 29.78 1009 10 16.0934 0 0
11:15 pm 23:15 Clear 80 26.9 54 12.1 40 40 SSE 24 39 29.79 1009 10 16.0934 0 0
11:35 pm 23:35 Clear 80 26.5 54 12 41 41 SSE 23 37 29.8 1009 10 16.0934 0 0
11:55 pm 23:55 Clear 80 26.4 53 11.6 40 40 S 23 37 29.8 1009 10 16.0934 0 0

Powered by AerisWeather